{"data":{"norad_id":53171,"intl_designator":"2022-083AR","name":"STARLINK-4052","alt_names":[],"object_type":"PAYLOAD","status":"ACTIVE","operator":null,"country":"US","launch_date":"2022-07-17","launch_site_code":"AFETR","launch_vehicle":null,"mission":null,"orbit_class":"UNKNOWN","rcs_meters":null,"size_class":null,"mass_kg":null,"dimensions":null,"purposes":["comms"],"wikipedia_slug":null,"has_3d_model":false,"image_url":null,"decayed_at":null,"tle_current":{"epoch":"2026-09-20T04:36:57.356064Z","epoch_age_seconds":98848,"freshness":"FRESH","line1":"1 53171U 22083AR  26263.19233051  .00000020  00000+0  11481-4 0  9995","line2":"2 53171  53.1613 327.6354 0001195  69.8857 290.2274 15.35403681231319","mean_motion":15.35403681,"eccentricity":0.0001195,"inclination_deg":53.1613,"raan_deg":327.6354,"arg_perigee_deg":69.8857,"mean_anomaly_deg":290.2274,"bstar":1.1481e-5,"rev_number":23131,"period_min":93.786410558957,"perigee_km":458.90458981236,"apogee_km":460.53883804499,"semimajor_km":6837.8587139287,"source":"CELESTRAK","updated_at":"2026-09-20T09:00:40.185879Z"}}}